Temp
-6 -6 -6 -6 -5 -5 -5 -5 -5 -5 -5 -5 -5 -5 -5 -5 -5 -5 -5 -5 -5 -5 -5 -5 -5 -5 -5 -5 -6 -6 -6 -6 -6 -6 -6 -6 -6 -6 -6 -7 -7 -7
-6 -6 -6 -6 -6 -6 -5 -5 -5 -5 -5 -5 -5 -5 -5 -5 -5 -5 -5 -5 -5 -5 -5 -5 -5 -5 -5 -5 -5 -6 -6 -6 -6 -6 -6 -6 -6 -7 -7 -7 -7 -7
-6 -6 -6 -6 -6 -6 -5 -5 -5 -5 -5 -5 -5 -5 -5 -5 -5 -5 -5 -5 -5 -5 -5 -5 -5 -5 -5 -5 -5 -5 -6 -6 -6 -6 -6 -6 -6 -7 -7 -7 -7 -7
-6 -6 -6 -6 -6 -6 -6 -6 -5 -5 -5 -5 -5 -5 -5 -5 -5 -5 -5 -5 -5 -5 -5 -5 -5 -5 -5 -5 -5 -5 -5 -6 -6 -6 -6 -6 -6 -6 -6 -6 -6 -7
-6 -6 -6 -6 -6 -6 -6 -6 -6 -6 -5 -5 -5 -5 -5 -5 -5 -5 -5 -5 -5 -5 -5 -5 -5 -5 -5 -5 -5 -5 -5 -5 -5 -6 -6 -6 -6 -6 -6 -6 -6 -6
-6 -6 -6 -6 -6 -6 -6 -6 -6 -6 -5 -5 -5 -5 -5 -5 -5 -5 -5 -5 -5 -5 -5 -5 -5 -5 -5 -5 -5 -5 -5 -5 -5 -5 -5 -6 -6 -6 -6 -6 -6 -6
-6 -6 -6 -6 -6 -6 -6 -6 -6 -6 -6 -6 -6 -5 -5 -5 -5 -5 -5 -5 -5 -5 -5 -5 -5 -5 -5 -5 -5 -5 -5 -5 -5 -5 -5 -5 -5 -6 -6 -6 -6 -6
-6 -6 -6 -6 -6 -6 -6 -6 -6 -6 -6 -6 -6 -5 -5 -5 -5 -5 -5 -5 -5 -5 -5 -5 -5 -5 -5 -5 -5 -5 -5 -5 -5 -5 -5 -5 -5 -5 -6 -6 -6 -6
-5 -5 -5 -6 -6 -6 -6 -6 -6 -6 -6 -6 -5 -5 -5 -5 -5 -5 -5 -5 -4 -5 -5 -5 -5 -5 -5 -5 -5 -5 -5 -5 -5 -5 -5 -5 -5 -5 -5 -5 -6 -6
-6 -6 -5 -6 -6 -6 -6 -6 -6 -6 -6 -6 -5 -5 -5 -5 -5 -5 -5 -4 -4 -4 -4 -5 -5 -5 -4 -4 -4 -5 -5 -5 -5 -5 -5 -5 -5 -5 -5 -5 -5 -6
-5 -5 -5 -6 -6 -6 -6 -6 -6 -6 -6 -6 -5 -5 -5 -5 -5 -5 -5 -4 -4 -4 -4 -4 -4 -4 -4 -4 -4 -4 -5 -5 -5 -5 -5 -5 -5 -5 -5 -5 -5 -5
-5 -5 -5 -6 -6 -6 -6 -6 -6 -5 -6 -5 -5 -5 -5 -5 -5 -5 -5 -4 -4 -4 -4 -4 -4 -4 -4 -4 -4 -4 -4 -4 -5 -5 -4 -5 -5 -5 -5 -5 -5 -5
-5 -5 -5 -5 -5 -5 -5 -6 -6 -5 -5 -5 -5 -5 -5 -5 -5 -5 -5 -4 -4 -4 -4 -4 -4 -4 -4 -4 -4 -5 -4 -4 -4 -5 -4 -4 -4 -4 -4 -5 -5 -5
-5 -5 -5 -5 -5 -5 -5 -5 -5 -5 -5 -5 -5 -5 -5 -5 -5 -5 -5 -5 -4 -4 -4 -4 -4 -4 -4 -4 -4 -5 -4 -4 -4 -5 -5 -4 -4 -4 -4 -4 -4 -5
-5 -5 -5 -5 -5 -5 -5 -5 -5 -5 -5 -5 -5 -5 -5 -5 -5 -5 -5 -5 -4 -4 -4 -4 -4 -4 -4 -4 -4 -4 -4 -4 -4 -5 -5 -5 -5 -5 -4 -4 -4 -4
-6 -5 -5 -5 -5 -5 -4 -4 -4 -5 -5 -5 -5 -5 -5 -5 -5 -5 -5 -5 -4 -4 -4 -4 -4 -4 -5 -4 -4 -4 -4 -4 -4 -5 -5 -5 -5 -5 -5 -5 -4 -5
-6 -6 -5 -5 -5 -5 -5 -4 -4 -4 -4 -4 -4 -5 -5 -5 -5 -5 -5 -5 -5 -4 -4 -4 -4 -5 -5 -4 -4 -4 -4 -4 -5 -5 -5 -5 -5 -5 -5 -5 -5 -5
-6 -6 -5 -5 -5 -5 -5 -5 -4 -4 -4 -4 -4 -4 -4 -4 -5 -5 -5 -5 -5 -5 -5 -5 -5 -5 -5 -4 -4 -4 -4 -5 -5 -5 -5 -5 -5 -5 -5 -5 -5 -5
-6 -6 -6 -6 -5 -5 -5 -5 -4 -4 -4 -4 -4 -4 -4 -4 -4 -4 -4 -4 -5 -5 -5 -5 -5 -5 -5 -5 -5 -5 -5 -5 -5 -5 -5 -5 -5 -5 -5 -5 -5 -5
-7 -6 -6 -6 -6 -5 -5 -5 -5 -4 -4 -4 -4 -4 -4 -4 -4 -4 -4 -4 -4 -5 -5 -5 -5 -5 -5 -5 -5 -5 -5 -5 -5 -5 -5 -5 -5 -5 -5 -5 -6 -6
-7 -7 -6 -6 -6 -6 -5 -5 -5 -5 -4 -4 -4 -4 -4 -4 -4 -4 -4 -4 -5 -5 -5 -5 -5 -5 -5 -5 -5 -5 -5 -5 -5 -5 -5 -5 -5 -5 -5 -5 -6 -6
-7 -7 -7 -6 -6 -6 -5 -5 -5 -5 -5 -5 -4 -4 -4 -5 -5 -4 -4 -5 -5 -5 -5 -5 -5 -5 -5 -5 -5 -5 -5 -5 -5 -5 -5 -5 -5 -5 -5 -5 -6 -6
-7 -7 -7 -6 -6 -6 -6 -6 -5 -5 -5 -5 -5 -5 -5 -5 -5 -5 -5 -5 -5 -5 -5 -5 -5 -5 -5 -5 -5 -4 -4 -5 -5 -5 -5 -5 -5 -5 -5 -5 -6 -6
-7 -7 -7 -7 -6 -6 -6 -6 -5 -5 -5 -5 -5 -5 -5 -5 -5 -5 -5 -5 -5 -5 -5 -5 -5 -5 -5 -5 -5 -5 -5 -5 -5 -5 -5 -5 -5 -6 -6 -6 -6 -6
-8 -7 -7 -7 -6 -6 -6 -6 -5 -5 -5 -5 -5 -5 -5 -5 -5 -5 -5 -5 -5 -5 -5 -5 -6 -6 -5 -5 -5 -5 -5 -5 -5 -5 -5 -6 -6 -6 -6 -6 -6 -6
-8 -8 -7 -7 -7 -7 -6 -6 -5 -5 -5 -5 -5 -5 -5 -5 -5 -5 -5 -5 -5 -5 -5 -5 -6 -5 -5 -6 -6 -5 -5 -5 -5 -5 -5 -6 -6 -6 -6 -6 -6 -6
Height
5943 5944 5945 5946 5947 5948 5949 5950 5951 5952 5953 5954 5955 5956 5958 5959 5960 5961 5962 5963 5963 5964 5964 5965 5965 5966 5966 5967 5967 5968 5968 5969 5969 5970 5970 5971 5972 5972 5972 5973 5973 5974
5942 5943 5945 5945 5946 5947 5948 5949 5950 5951 5953 5954 5955 5956 5957 5958 5959 5960 5962 5963 5963 5964 5964 5965 5965 5965 5966 5967 5967 5968 5969 5969 5970 5970 5971 5971 5972 5972 5973 5973 5973 5974
5942 5943 5944 5944 5945 5946 5947 5948 5949 5951 5952 5953 5954 5955 5956 5957 5958 5960 5961 5962 5963 5964 5964 5965 5965 5965 5966 5966 5967 5968 5968 5969 5970 5970 5971 5971 5972 5972 5973 5973 5973 5974
5941 5942 5943 5943 5944 5945 5947 5948 5949 5950 5951 5952 5953 5954 5955 5956 5957 5959 5960 5961 5962 5963 5964 5964 5965 5965 5966 5966 5967 5967 5968 5969 5970 5970 5971 5971 5972 5972 5973 5973 5973 5974
5939 5941 5942 5943 5943 5945 5946 5947 5948 5949 5950 5951 5952 5953 5954 5955 5956 5958 5959 5960 5961 5962 5963 5964 5964 5965 5966 5966 5966 5967 5968 5968 5969 5970 5971 5971 5972 5972 5973 5973 5973 5974
5938 5939 5941 5942 5943 5944 5945 5946 5947 5948 5949 5950 5951 5952 5953 5954 5955 5957 5958 5959 5960 5961 5962 5963 5964 5964 5965 5966 5966 5966 5967 5968 5969 5969 5970 5971 5971 5972 5972 5973 5973 5974
5937 5938 5939 5940 5941 5942 5943 5944 5946 5947 5948 5949 5950 5951 5952 5953 5954 5956 5957 5958 5959 5960 5960 5961 5962 5963 5964 5965 5965 5966 5966 5967 5968 5969 5969 5970 5970 5971 5972 5972 5973 5973
5936 5937 5938 5939 5940 5941 5942 5943 5945 5946 5947 5948 5949 5950 5951 5952 5954 5955 5956 5957 5958 5958 5959 5960 5961 5962 5963 5964 5964 5965 5966 5966 5967 5968 5969 5969 5970 5970 5971 5972 5972 5973
5934 5935 5937 5938 5939 5940 5941 5942 5943 5945 5946 5947 5948 5949 5950 5951 5952 5954 5955 5956 5956 5957 5958 5959 5960 5961 5962 5963 5963 5964 5965 5965 5966 5967 5967 5968 5969 5970 5970 5971 5971 5972
5932 5934 5935 5936 5938 5939 5940 5941 5942 5943 5945 5946 5947 5948 5949 5950 5951 5952 5953 5954 5955 5956 5957 5958 5959 5960 5960 5961 5962 5963 5964 5964 5965 5966 5966 5967 5968 5968 5969 5970 5971 5971
5930 5931 5933 5935 5936 5937 5938 5939 5940 5942 5943 5944 5946 5947 5948 5949 5950 5951 5952 5953 5954 5955 5956 5957 5958 5958 5959 5960 5961 5961 5962 5963 5964 5964 5965 5966 5966 5967 5968 5968 5969 5970
5929 5930 5931 5932 5934 5935 5936 5937 5938 5940 5941 5943 5944 5945 5946 5947 5949 5949 5950 5951 5952 5953 5955 5956 5957 5957 5958 5959 5959 5960 5960 5961 5962 5963 5963 5964 5965 5965 5966 5967 5968 5968
5928 5929 5930 5930 5931 5932 5933 5935 5936 5938 5939 5941 5942 5943 5945 5946 5947 5948 5949 5950 5951 5952 5953 5955 5955 5956 5957 5957 5958 5958 5959 5959 5960 5961 5961 5962 5963 5964 5964 5965 5966 5967
5925 5926 5927 5928 5929 5930 5932 5933 5934 5936 5937 5939 5940 5942 5943 5944 5946 5947 5947 5948 5950 5951 5952 5953 5954 5955 5956 5956 5957 5957 5957 5958 5958 5959 5960 5960 5961 5962 5963 5964 5965 5965
5922 5923 5925 5926 5928 5929 5930 5931 5932 5934 5935 5936 5938 5940 5941 5942 5944 5945 5946 5947 5948 5949 5950 5952 5953 5954 5954 5955 5955 5955 5956 5956 5957 5957 5958 5959 5960 5960 5961 5962 5963 5964
5919 5920 5922 5923 5925 5927 5928 5929 5930 5932 5933 5934 5936 5937 5939 5940 5942 5943 5945 5946 5947 5948 5949 5950 5951 5952 5952 5953 5953 5954 5954 5955 5955 5956 5956 5957 5958 5959 5960 5961 5961 5962
5916 5917 5919 5920 5922 5924 5925 5926 5928 5929 5931 5932 5934 5935 5936 5938 5939 5941 5943 5944 5945 5946 5947 5949 5950 5950 5950 5951 5952 5952 5953 5953 5953 5954 5954 5955 5956 5957 5958 5959 5960 5961
5912 5914 5916 5917 5919 5920 5922 5923 5925 5927 5928 5930 5931 5933 5934 5936 5937 5939 5941 5942 5943 5944 5946 5947 5948 5948 5948 5949 5950 5950 5951 5951 5951 5952 5952 5953 5954 5955 5956 5957 5958 5959
5911 5912 5913 5915 5916 5917 5918 5920 5922 5924 5926 5928 5929 5930 5932 5933 5935 5936 5938 5939 5941 5942 5943 5945 5946 5946 5946 5947 5948 5948 5948 5949 5949 5950 5950 5951 5953 5954 5955 5955 5956 5957
5910 5911 5911 5912 5913 5914 5916 5917 5919 5921 5923 5925 5926 5927 5929 5931 5932 5933 5935 5936 5938 5939 5940 5942 5943 5943 5944 5944 5945 5945 5946 5946 5947 5947 5948 5950 5951 5952 5953 5953 5954 5955
5907 5908 5909 5910 5911 5912 5914 5915 5916 5918 5920 5921 5923 5924 5926 5928 5929 5930 5931 5933 5934 5936 5937 5938 5940 5940 5941 5941 5942 5942 5943 5943 5944 5945 5946 5948 5949 5950 5950 5951 5952 5953
5903 5905 5906 5907 5908 5910 5911 5913 5914 5915 5916 5918 5919 5921 5922 5924 5925 5926 5928 5929 5930 5931 5933 5935 5936 5937 5937 5938 5938 5939 5939 5941 5942 5943 5944 5945 5946 5947 5948 5949 5949 5950
5899 5901 5903 5904 5905 5906 5908 5909 5910 5911 5912 5913 5915 5917 5918 5920 5921 5922 5923 5925 5926 5927 5929 5931 5932 5933 5934 5934 5935 5935 5937 5938 5940 5941 5942 5943 5944 5945 5945 5946 5947 5948
5895 5897 5899 5900 5901 5902 5904 5905 5906 5907 5908 5909 5910 5912 5914 5915 5916 5917 5919 5920 5922 5924 5925 5927 5928 5928 5930 5931 5931 5932 5934 5935 5937 5938 5939 5940 5941 5941 5942 5943 5945 5946
5891 5893 5894 5896 5897 5898 5899 5898 5899 5900 5902 5903 5905 5907 5908 5910 5911 5913 5915 5916 5917 5919 5920 5922 5923 5924 5925 5926 5927 5929 5930 5932 5933 5934 5935 5937 5937 5938 5939 5940 5941 5942
5886 5888 5889 5891 5891 5892 5892 5891 5892 5893 5894 5896 5898 5900 5901 5904 5906 5908 5909 5911 5912 5914 5915 5917 5918 5919 5921 5922 5923 5925 5927 5928 5929 5931 5932 5933 5933 5934 5935 5936 5937 5938
Wind_Speed
14 14 14 15 16 17 16 15 14 13 12 11 10 10 10 10 10 10 10 10 10 11 10 10 9 8 8 8 9 9 9 9 9 8 8 8 8 9 9 9 10 10
16 15 14 14 16 17 17 16 15 14 13 13 12 11 11 11 10 10 10 10 11 11 11 11 10 9 9 9 9 9 9 9 9 9 9 9 8 8 8 9 10 10
17 16 15 16 16 17 18 17 16 15 14 14 14 13 12 12 11 11 10 10 10 11 12 12 11 11 10 10 9 9 9 9 9 9 9 9 9 8 8 9 10 10
17 17 17 18 17 18 18 18 17 17 17 16 16 14 13 13 12 12 11 11 10 11 11 12 12 12 12 12 11 10 10 10 10 10 10 9 9 9 9 9 10 10
19 18 19 19 19 18 18 18 18 19 18 18 17 16 14 14 13 13 12 12 11 11 12 12 13 13 13 13 13 12 11 11 11 11 10 10 10 9 9 9 10 10
21 20 19 19 19 19 19 19 19 19 19 19 18 17 16 15 14 14 13 12 12 12 12 13 13 13 14 14 14 14 13 12 12 12 11 11 11 10 10 10 10 10
23 22 21 20 20 20 20 20 19 20 20 19 19 18 17 16 15 14 14 13 12 12 12 13 13 14 14 14 15 15 14 14 13 12 12 12 12 11 11 10 10 11
25 23 22 22 21 21 21 21 20 20 20 20 20 20 19 18 17 16 15 14 13 13 13 13 14 14 14 14 15 15 15 14 14 13 13 13 12 12 11 11 11 11
27 25 24 23 23 22 22 22 22 22 21 21 21 21 20 20 19 17 16 16 15 15 15 15 15 15 15 15 15 15 15 15 15 14 14 14 13 13 12 12 11 11
28 27 26 25 24 24 24 24 24 23 23 23 23 22 22 21 20 19 18 17 17 17 16 16 16 16 16 15 15 15 15 15 16 15 15 15 14 14 13 12 12 11
29 28 27 26 26 26 26 26 25 25 24 24 24 24 23 23 22 21 20 20 19 18 18 17 17 17 16 16 15 15 15 16 16 16 16 15 15 15 14 13 13 12
30 29 29 28 28 28 28 28 27 26 26 26 25 25 25 24 23 22 22 22 21 20 19 19 18 18 17 16 16 16 16 16 16 17 16 16 16 16 15 15 14 13
30 30 30 30 30 31 30 29 28 27 27 27 27 26 26 25 24 24 24 23 22 21 20 19 19 18 18 16 16 16 16 16 16 17 17 16 16 17 17 16 16 15
32 32 32 32 32 32 32 31 30 29 28 28 27 27 26 26 26 25 25 24 23 22 21 20 19 18 18 17 16 16 16 17 17 17 17 17 17 17 18 18 18 17
33 34 34 33 33 33 33 33 32 31 30 29 28 28 27 27 27 26 26 25 24 23 22 21 20 19 18 18 17 17 17 17 17 18 18 18 18 17 18 19 19 19
33 34 34 34 34 34 34 34 34 33 32 31 30 29 28 28 27 27 26 26 25 25 23 22 21 20 20 19 18 18 18 18 18 18 18 18 18 18 17 18 19 19
32 33 33 34 35 35 35 35 35 34 34 33 32 31 30 28 28 27 27 26 26 25 24 23 21 21 22 21 19 19 18 18 19 19 19 19 19 18 18 18 18 18
32 32 32 33 34 36 36 36 36 35 35 34 33 32 31 30 29 28 27 26 26 25 24 23 22 23 23 22 21 20 20 20 20 20 21 20 20 20 19 19 18 17
32 31 31 32 34 35 36 37 36 36 35 35 34 34 33 32 30 29 28 27 26 25 24 23 23 23 23 23 22 22 22 22 21 21 21 21 21 21 20 20 19 19
33 32 31 32 33 34 35 36 36 36 36 35 35 35 34 33 32 31 31 30 28 27 26 25 24 24 24 24 24 24 24 24 23 23 22 22 22 22 22 22 21 20
36 34 33 33 33 33 34 34 35 35 35 36 36 35 34 34 34 33 33 32 31 30 29 28 27 26 26 26 26 26 26 26 25 24 23 22 22 23 23 23 23 22
39 37 36 35 34 33 33 33 33 33 34 34 35 35 35 34 34 34 33 32 32 32 31 30 29 29 29 29 29 29 28 28 26 25 24 24 23 23 24 24 25 24
42 40 39 38 37 36 34 33 33 33 33 33 33 33 33 34 35 34 33 33 33 32 31 29 30 30 31 31 32 31 30 29 27 27 26 25 24 24 24 25 25 25
45 44 42 42 41 39 37 36 35 34 33 33 32 32 32 33 34 34 33 32 32 31 29 28 29 30 30 31 32 32 30 29 28 27 26 25 25 25 25 24 24 25
45 46 46 45 44 43 41 40 39 38 37 35 34 32 32 32 32 32 32 31 30 30 29 28 29 29 30 30 31 30 29 29 28 27 26 25 24 24 24 24 24 24
46 46 47 47 48 48 47 46 44 42 41 39 37 35 34 33 32 32 31 31 30 30 30 29 29 30 30 30 30 29 28 27 26 25 25 24 24 24 24 23 23 24
Wind_Direction
200 200 199 199 197 197 198 195 192 190 187 187 190 193 194 197 203 206 207 209 212 215 215 211 207 204 201 198 195 193 192 194 194 190 189 191 194 192 188 188 189 187
202 201 199 201 201 201 201 198 196 194 193 193 194 197 199 202 208 211 213 216 219 221 222 220 218 215 212 209 207 205 201 199 196 192 194 197 198 197 195 195 195 193
203 202 199 201 202 203 203 201 200 197 198 200 200 201 202 205 212 215 218 223 226 228 228 227 225 223 221 218 216 214 211 209 203 198 198 199 201 203 201 201 199 198
205 204 203 202 202 205 207 205 203 202 203 205 205 205 205 208 214 216 219 223 228 233 234 232 230 228 227 225 223 220 218 216 213 208 205 203 204 207 208 206 204 203
206 207 207 206 204 205 208 209 207 205 205 206 207 209 209 211 214 216 218 221 225 231 235 237 235 232 231 229 226 225 222 220 218 215 213 211 210 211 212 213 211 211
206 208 210 210 208 207 210 211 210 208 207 206 208 209 210 213 214 215 216 218 221 226 231 236 237 237 236 234 230 227 225 223 220 218 218 217 216 216 217 218 219 219
208 209 211 213 212 211 212 212 212 212 209 208 209 209 209 212 213 213 213 215 219 223 228 234 238 238 238 237 235 232 228 226 223 220 220 220 220 219 221 222 223 224
211 211 211 213 215 215 215 214 213 213 212 209 209 208 208 210 212 212 213 215 218 222 227 232 236 238 238 238 237 235 232 230 226 222 220 221 220 220 223 226 227 228
214 214 213 212 215 218 218 217 215 214 213 212 211 209 209 211 212 213 215 218 220 223 226 230 232 235 236 236 236 235 233 231 229 226 222 221 220 220 223 228 230 232
216 216 216 214 215 218 220 221 218 216 215 215 214 212 211 212 214 216 218 220 223 224 225 227 230 232 234 235 234 233 232 231 230 229 225 223 222 221 224 227 230 234
217 218 218 217 217 218 221 222 221 218 217 217 216 215 214 213 214 216 219 221 223 224 225 226 229 231 234 235 234 233 232 230 229 229 227 225 224 224 225 228 231 234
220 220 220 220 220 220 222 223 223 221 220 219 219 219 217 215 215 216 219 222 223 224 225 226 228 231 234 234 235 234 232 231 230 230 229 228 226 226 227 229 232 235
224 224 223 222 222 222 223 224 224 224 223 222 222 222 221 219 218 218 220 223 225 226 226 227 228 231 234 235 235 236 234 232 231 230 231 231 229 229 229 230 232 234
227 226 226 226 225 224 224 224 225 225 225 225 225 225 225 224 222 222 223 225 227 228 229 229 230 232 234 235 235 236 236 234 233 232 233 233 233 232 232 232 233 234
231 229 229 229 230 229 228 227 226 226 226 226 227 228 228 228 228 227 227 228 229 231 232 233 233 234 236 237 236 236 237 237 236 235 235 236 236 236 236 235 235 235
235 234 232 231 232 232 232 231 230 229 228 228 228 229 229 230 232 232 231 231 232 233 235 236 236 238 239 240 239 239 239 239 239 239 238 239 239 240 240 240 239 238
235 235 235 234 234 234 235 235 234 233 231 230 230 230 230 231 233 234 235 235 236 237 238 238 238 240 243 244 244 244 244 243 243 242 242 241 242 242 243 243 242 242
234 235 236 236 236 236 236 237 237 236 235 234 233 233 232 232 234 235 237 238 239 240 240 240 239 241 244 247 248 248 247 247 246 246 245 244 243 243 243 244 244 245
236 236 236 237 237 237 237 238 239 239 238 238 237 237 235 235 235 236 238 239 239 240 242 241 241 243 246 249 250 250 251 250 249 249 249 247 246 245 245 245 245 245
238 239 240 240 239 238 239 239 239 240 241 241 241 241 239 238 238 238 239 239 240 240 241 242 242 244 247 250 251 252 253 253 253 252 252 252 251 249 248 247 246 246
240 240 241 242 242 242 242 241 241 241 241 242 243 243 242 241 240 240 240 241 242 242 242 243 243 245 247 249 250 251 253 254 255 256 256 256 255 253 252 250 248 247
241 240 240 241 244 245 245 245 244 243 242 242 242 243 243 243 242 242 241 241 242 243 243 244 245 245 247 249 249 250 251 253 255 257 258 259 259 258 256 254 252 251
241 240 240 242 244 245 246 245 244 244 243 242 241 241 241 242 242 242 242 241 242 243 243 244 246 247 247 249 250 251 252 253 255 257 258 260 261 261 260 259 258 256
242 241 241 242 243 243 244 244 243 242 242 241 240 240 240 240 240 241 241 241 242 243 243 243 244 246 247 248 251 252 254 255 256 257 258 259 261 262 262 262 261 259
243 242 242 242 243 243 242 242 240 239 239 239 238 237 237 238 239 239 240 240 240 240 240 240 241 243 244 246 248 250 252 253 255 256 257 258 258 259 260 260 260 258
242 243 243 243 243 243 243 241 238 236 235 235 234 234 233 234 235 235 236 236 236 236 236 236 238 240 241 243 246 247 248 249 251 253 255 255 255 255 256 257 258 257